Home   Weather   Ilio   Past weeks

Flag for Greece Past Weather in Ilio, Greece — Yesterday and Last 2 Weeks

Now
66 °F

Passing clouds.


Feels Like: 66 °F
Forecast: 57 / 79 °F
Wind: 13 mph from Northwest

Location: Elefsis Airport

Current Time: May 1, 2017 at 6:00:12 am

Latest Report: May 1, 2017 at 5:20 am


Visibility: N/A

Pressure: 29.77 "Hg

Humidity: 49%

Dew Point: 46 °F

Location of IlioLocation

Past Weather in Ilio — Graph

°F

Ilio Temperature Yesterday

Maximum temperature yesterday: 82 °F (at 11:50 am)
Minimum temperature yesterday: 64 °F (at 12:20 am)
Average temperature yesterday: 72 °F

High & Low Weather Summary for the Past Weeks

 TemperatureHumidityPressure
High82 °F (Apr 30, 11:50 am)94% (Apr 18, 12:50 am)30.21 "Hg (Apr 18, 12:50 am)
Low43 °F (Apr 23, 3:50 am)14% (Apr 30, 11:50 am)29.74 "Hg (Apr 17, 3:50 pm)
Average62 °F50%29.98 "Hg
* Reported Apr 16 4:20 am — May 1 4:20 am, Ilio, Weather by CustomWeather, © 2017

Note: Actual official high and low records may vary slightly from our data, if they occured in-between our weather recording intervals... More about our weather records

Advertising

Ilio Weather History for the Previous 24 Hours

Scroll right to see more
 ConditionsComfort  
Time TempWeatherWind HumidityBarometerVisibility
4:20 am
Mon, May 1
66 °FPassing clouds.12 mph46%29.77 "HgN/A
3:20 am66 °FPassing clouds.10 mph43%29.80 "HgN/A
2:50 am66 °FPassing clouds.15 mph43%29.80 "HgN/A
2:20 am66 °FPassing clouds.9 mph46%29.80 "HgN/A
1:50 am66 °FPassing clouds.8 mph43%29.80 "HgN/A
1:20 am68 °FPassing clouds.6 mph35%29.80 "HgN/A
12:50 am68 °FPassing clouds.6 mph35%29.80 "HgN/A
12:20 am68 °FPassing clouds.8 mph35%29.80 "HgN/A
11:50 pm
Sun, Apr 30
70 °FPassing clouds.7 mph29%29.80 "HgN/A
11:20 pm70 °FPassing clouds.5 mph27%29.80 "HgN/A
10:20 pm70 °FPassing clouds.No wind31%29.77 "HgN/A
9:50 pm72 °FPassing clouds.No wind29%29.77 "HgN/A
9:20 pm72 °FPassing clouds.8 mph29%29.77 "HgN/A
8:50 pm72 °FPassing clouds.8 mph29%29.77 "HgN/A
8:20 pm72 °FPassing clouds.12 mph29%29.77 "HgN/A
7:50 pm73 °FPartly sunny.12 mph27%29.77 "HgN/A
7:20 pm73 °FPartly sunny.10 mph25%29.74 "HgN/A
6:50 pm73 °FPartly sunny.9 mph31%29.74 "HgN/A
6:20 pm75 °FPartly sunny.14 mph27%29.74 "HgN/A
5:50 pm77 °FPartly sunny.12 mph28%29.74 "HgN/A
5:20 pm79 °FScattered clouds.5 mph26%29.74 "HgN/A
4:50 pm77 °FScattered clouds.7 mph26%29.74 "HgN/A
4:20 pm77 °FScattered clouds.9 mph26%29.74 "HgN/A
3:50 pm82 °FScattered clouds.9 mph21%29.74 "HgN/A
3:20 pm81 °FScattered clouds.9 mph21%29.74 "HgN/A
2:50 pm81 °FPassing clouds.12 mph21%29.77 "HgN/A
2:20 pm81 °FPassing clouds.9 mph21%29.77 "HgN/A
1:50 pm82 °FPassing clouds.5 mph17%29.77 "HgN/A
1:20 pm82 °FPassing clouds.7 mph17%29.77 "HgN/A
12:50 pm81 °FPassing clouds.9 mph18%29.77 "HgN/A
12:20 pm82 °FScattered clouds.9 mph14%29.77 "HgN/A
11:50 am82 °FScattered clouds.7 mph14%29.80 "HgN/A
11:20 am81 °FScattered clouds.7 mph15%29.80 "HgN/A
10:20 am79 °FScattered clouds.No wind17%29.80 "HgN/A
9:50 am75 °FPartly sunny.5 mph19%29.80 "HgN/A
9:20 am73 °FPartly sunny.5 mph22%29.80 "HgN/A
8:50 am72 °FPartly sunny.5 mph25%29.80 "HgN/A
8:20 am68 °FSunny.5 mph30%29.80 "Hg10 mi
7:50 am66 °FPartly sunny.No wind32%29.80 "HgN/A
7:20 am64 °FPartly sunny.No wind34%29.80 "HgN/A
6:50 am64 °FPartly sunny.2 mph32%29.80 "HgN/A
6:20 am68 °FPassing clouds.3 mph26%29.77 "HgN/A
Weather by CustomWeather, © 2017

See weather overviewHow to use our weather pages